User: anonymous   Login
Location: Moscow
(55.7500°N, 37.5830°E)
Time: 16:16:30
(UTC+03:00)
Language:

deb Explorer IX - Orbit

View from above orbital plane
View from above orbital plane
View from above satellite
View from above satellite

Ground track
Ground track

The orbit data is extracted from the following two-line orbital elements,

1 00085U 61004C   21342.76337636  .00004769  00000-0  10295-2 0  9992
2 00085  38.7641 145.7966 0375265 139.1852 223.7645 14.22895442  7871
Epoch (UTC): 08 December 2021 18:19:15
Eccentricity: 0.0375265
inclination: 38.7641°
perigee height: 545 km
apogee height: 1085 km
right ascension of ascending node: 145.7966°
argument of perigee: 139.1852°
revolutions per day: 14.22895442
mean anomaly at epoch: 223.7645°
orbit number at epoch: 787

The dashed part of the orbit path shows where the satellite is in the earth's shadow,  

DLR